• In Austria
  • List of Countries
  • For 7 days
  • Water Temperature
  • Satellite Maps
  • Weather Map
  • News
  • Weather Widgets
  • user-avatar
    Login

    Hourly Weather Vratsa

    Today, 25 February, Sunday

    Time Temperature Precipitation Wind Pressure Humidity
    00:00 -3°C° 0.1 mm 2 mps 705 mmHg 84%
    01:00 -4°C° 0.1 mm 2 mps 705 mmHg 83%
    02:00 -5°C° 0 mm 3 mps 705 mmHg 83%
    03:00 -4°C° 0.1 mm 2 mps 705 mmHg 82%
    04:00 -4°C° 0.1 mm 2 mps 705 mmHg 82%
    05:00 -5°C° 0.1 mm 2 mps 705 mmHg 81%
    06:00 -5°C° 0 mm 2 mps 706 mmHg 80%
    07:00 -5°C° 0 mm 2 mps 706 mmHg 78%
    08:00 -3°C° 0 mm 1 mps 706 mmHg 77%
    09:00 -5°C° 0.1 mm 2 mps 706 mmHg 73%
    10:00 -4°C° 0.1 mm 2 mps 706 mmHg 70%
    11:00 -4°C° 0.1 mm 2 mps 707 mmHg 66%
    12:00 -4°C° 0.3 mm 2 mps 706 mmHg 69%
    13:00 -4°C° 0.3 mm 2 mps 706 mmHg 73%
    14:00 -4°C° 0.3 mm 2 mps 706 mmHg 77%
    15:00 -4°C° 0.5 mm 2 mps 706 mmHg 81%
    16:00 -5°C° 0.5 mm 2 mps 706 mmHg 85%
    17:00 -6°C° 0.5 mm 3 mps 705 mmHg 89%
    18:00 -6°C° 0.6 mm 3 mps 705 mmHg 90%
    19:00 -7°C° 0.6 mm 3 mps 705 mmHg 91%
    20:00 -7°C° 0.6 mm 3 mps 705 mmHg 92%
    21:00 -7°C° 0.5 mm 3 mps 705 mmHg 92%
    22:00 -8°C° 0.5 mm 3 mps 705 mmHg 92%
    23:00 -8°C° 0.5 mm 3 mps 705 mmHg 92%

    Tomorrow, 26 February, Monday

    Time Temperature Precipitation Wind Pressure Humidity
    00:00 -9°C° 0.5 mm 4 mps 705 mmHg 93%
    01:00 -9°C° 0.5 mm 4 mps 704 mmHg 93%
    02:00 -9°C° 0.5 mm 4 mps 704 mmHg 93%
    03:00 -10°C° 0.8 mm 4 mps 704 mmHg 94%
    04:00 -10°C° 0.8 mm 4 mps 703 mmHg 94%
    05:00 -10°C° 0.8 mm 4 mps 703 mmHg 94%
    06:00 -12°C° 0.9 mm 5 mps 703 mmHg 94%
    07:00 -12°C° 0.9 mm 5 mps 702 mmHg 94%
    08:00 -12°C° 0.9 mm 5 mps 702 mmHg 94%
    09:00 -12°C° 0.9 mm 5 mps 702 mmHg 94%
    10:00 -12°C° 0.9 mm 5 mps 702 mmHg 94%
    11:00 -12°C° 0.9 mm 5 mps 701 mmHg 93%
    12:00 -12°C° 1 mm 5 mps 701 mmHg 93%
    13:00 -12°C° 1 mm 5 mps 701 mmHg 93%
    14:00 -12°C° 1 mm 5 mps 701 mmHg 93%
    15:00 -12°C° 0.7 mm 4 mps 701 mmHg 93%
    16:00 -12°C° 0.7 mm 4 mps 701 mmHg 93%
    17:00 -12°C° 0.7 mm 4 mps 701 mmHg 93%
    18:00 -14°C° 0.5 mm 4 mps 701 mmHg 94%
    19:00 -13°C° 0.5 mm 3 mps 701 mmHg 94%
    20:00 -13°C° 0.5 mm 3 mps 701 mmHg 95%
    21:00 -14°C° 0.4 mm 3 mps 701 mmHg 95%
    22:00 -14°C° 0.4 mm 3 mps 701 mmHg 95%
    23:00 -14°C° 0.4 mm 3 mps 701 mmHg 95%

    Day after tomorrow, 27 February, Tuesday

    Time Temperature Precipitation Wind Pressure Humidity
    00:00 -14°C° 0.3 mm 3 mps 701 mmHg 95%
    01:00 -14°C° 0.3 mm 3 mps 701 mmHg 95%
    02:00 -13°C° 0.3 mm 2 mps 701 mmHg 96%
    03:00 -13°C° 0.3 mm 2 mps 700 mmHg 95%
    04:00 -13°C° 0.3 mm 2 mps 700 mmHg 95%
    05:00 -13°C° 0.3 mm 2 mps 700 mmHg 95%
    06:00 -13°C° 0.3 mm 2 mps 701 mmHg 95%
    07:00 -13°C° 0.3 mm 2 mps 701 mmHg 95%
    08:00 -13°C° 0.3 mm 2 mps 701 mmHg 94%
    09:00 -12°C° 0.1 mm 2 mps 701 mmHg 92%
    10:00 -10°C° 0.1 mm 2 mps 702 mmHg 90%
    11:00 -9°C° 0.1 mm 2 mps 702 mmHg 88%
    12:00 -8°C° 0 mm 2 mps 702 mmHg 89%
    13:00 -7°C° 0 mm 2 mps 702 mmHg 89%
    14:00 -7°C° 0 mm 2 mps 702 mmHg 89%
    15:00 -7°C° 0.1 mm 2 mps 702 mmHg 91%
    16:00 -7°C° 0.1 mm 2 mps 702 mmHg 92%
    17:00 -8°C° 0.1 mm 2 mps 703 mmHg 93%
    18:00 -9°C° 0.1 mm 2 mps 703 mmHg 94%
    19:00 -9°C° 0.1 mm 1 mps 704 mmHg 95%
    20:00 -10°C° 0.1 mm 1 mps 704 mmHg 96%
    21:00 -10°C° 0.1 mm 1 mps 704 mmHg 96%
    22:00 -10°C° 0.1 mm 1 mps 705 mmHg 96%
    23:00 -10°C° 0.1 mm 1 mps 705 mmHg 96%

    28 February, Wednesday

    Time Temperature Precipitation Wind Pressure Humidity
    00:00 -10°C° 0.2 mm 1 mps 705 mmHg 96%
    01:00 -10°C° 0.2 mm 1 mps 704 mmHg 96%
    02:00 -12°C° 0.2 mm 2 mps 704 mmHg 96%
    03:00 -13°C° 0.6 mm 2 mps 704 mmHg 96%
    04:00 -13°C° 0.6 mm 2 mps 703 mmHg 96%
    05:00 -13°C° 0.6 mm 2 mps 703 mmHg 96%
    06:00 -13°C° 1.3 mm 2 mps 703 mmHg 96%
    07:00 -14°C° 1.3 mm 2 mps 703 mmHg 97%
    08:00 -15°C° 1.3 mm 3 mps 703 mmHg 97%
    09:00 -14°C° 1 mm 2 mps 703 mmHg 96%
    10:00 -13°C° 1 mm 2 mps 703 mmHg 95%
    11:00 -13°C° 1 mm 2 mps 703 mmHg 95%
    12:00 -13°C° 0.5 mm 2 mps 704 mmHg 94%
    13:00 -13°C° 0.5 mm 2 mps 704 mmHg 93%
    14:00 -12°C° 0.5 mm 2 mps 704 mmHg 92%
    15:00 -12°C° 0.2 mm 2 mps 704 mmHg 92%
    16:00 -12°C° 0.2 mm 2 mps 705 mmHg 92%
    17:00 -12°C° 0.2 mm 2 mps 705 mmHg 92%
    18:00 -12°C° 0 mm 1 mps 705 mmHg 93%
    19:00 -13°C° 0 mm 1 mps 706 mmHg 93%
    20:00 -14°C° 0 mm 1 mps 706 mmHg 94%
    21:00 -14°C° 0 mm 1 mps 706 mmHg 92%
    22:00 -17°C° 0 mm 2 mps 707 mmHg 91%
    23:00 -17°C° 0 mm 2 mps 708 mmHg 89%

    1 March, Thursday

    Time Temperature Precipitation Wind Pressure Humidity
    00:00 -17°C° 0 mm 2 mps 708 mmHg 88%
    01:00 -17°C° 0 mm 2 mps 708 mmHg 87%
    02:00 -17°C° 0 mm 2 mps 708 mmHg 86%
    03:00 -16°C° 0 mm 2 mps 708 mmHg 86%
    04:00 -16°C° 0 mm 2 mps 708 mmHg 86%
    05:00 -16°C° 0 mm 2 mps 709 mmHg 86%
    06:00 -16°C° 0 mm 2 mps 709 mmHg 86%
    07:00 -16°C° 0 mm 2 mps 709 mmHg 85%
    08:00 -15°C° 0 mm 2 mps 709 mmHg 85%
    09:00 -13°C° 0 mm 2 mps 710 mmHg 82%
    10:00 -9°C° 0 mm 2 mps 710 mmHg 80%
    11:00 -7°C° 0 mm 2 mps 710 mmHg 77%
    12:00 -4°C° 0 mm 1 mps 709 mmHg 76%
    13:00 -3°C° 0 mm 1 mps 709 mmHg 74%
    14:00 -2°C° 0 mm 1 mps 708 mmHg 72%
    15:00 -2°C° 0 mm 1 mps 708 mmHg 76%
    16:00 -2°C° 0 mm 1 mps 708 mmHg 80%
    17:00 -3°C° 0 mm 1 mps 707 mmHg 84%
    18:00 -4°C° 0 mm 1 mps 707 mmHg 84%
    19:00 -6°C° 0 mm 1 mps 707 mmHg 84%
    20:00 -8°C° 0 mm 1 mps 707 mmHg 83%
    21:00 -8°C° 0 mm 1 mps 707 mmHg 83%
    22:00 -8°C° 0 mm 1 mps 707 mmHg 83%
    23:00 -7°C° 0 mm 1 mps 707 mmHg 83%

    2 March, Friday

    Time Temperature Precipitation Wind Pressure Humidity
    00:00 -7°C° 0 mm 1 mps 707 mmHg 84%
    01:00 -7°C° 0 mm 1 mps 707 mmHg 84%
    02:00 -7°C° 0 mm 1 mps 707 mmHg 85%
    03:00 -7°C° 0 mm 1 mps 706 mmHg 86%
    04:00 -7°C° 0 mm 1 mps 706 mmHg 88%
    05:00 -8°C° 0 mm 2 mps 706 mmHg 89%
    06:00 -7°C° 0.1 mm 1 mps 706 mmHg 90%
    07:00 -7°C° 0.1 mm 1 mps 706 mmHg 91%
    08:00 -6°C° 0.1 mm 1 mps 706 mmHg 92%
    09:00 -4°C° 0.1 mm 1 mps 705 mmHg 93%
    10:00 -3°C° 0.1 mm 1 mps 705 mmHg 94%
    11:00 -3°C° 0.1 mm 1 mps 705 mmHg 95%
    12:00 -4°C° 0.1 mm 2 mps 705 mmHg 95%
    13:00 -4°C° 0.1 mm 2 mps 705 mmHg 95%
    14:00 -3°C° 0.1 mm 2 mps 704 mmHg 95%
    15:00 -3°C° 0.1 mm 2 mps 704 mmHg 96%
    16:00 -3°C° 0.1 mm 2 mps 704 mmHg 96%
    17:00 -3°C° 0.1 mm 2 mps 704 mmHg 96%
    18:00 -4°C° 0 mm 2 mps 704 mmHg 96%
    19:00 -4°C° 0 mm 2 mps 703 mmHg 96%
    20:00 -3°C° 0 mm 1 mps 703 mmHg 96%
    21:00 -3°C° 0 mm 1 mps 703 mmHg 96%
    22:00 -3°C° 0 mm 1 mps 703 mmHg 96%
    23:00 -4°C° 0 mm 1 mps 703 mmHg 96%
    Show more